DW8248 Weather Reports


Display with metric or nautical units.
time (UTC)temp
F
wind
direction
speed
MPH
gust
MPH
rain 1hr
in
rain 24hr
in
rain mn
in
humidity
%
barometer
mb
20210227234655 73 154 5.0 10.0 0.00 0.00 0.00 88 1022.0
20210227233650 73 135 5.0 9.0 0.00 0.00 0.00 87 1021.9
20210227232920 73 140 3.0 8.0 0.00 0.00 0.00 87 1021.9
20210227231613 73 115 3.0 9.0 0.00 0.00 0.00 87 1021.9
20210227230612 74 137 4.0 9.0 0.00 0.00 0.00 86 1021.9
20210227225606 74 134 5.0 9.0 0.00 0.00 0.00 86 1021.8
20210227224537 74 127 3.0 9.0 0.00 0.00 0.00 85 1021.7
20210227223520 74 107 4.0 10.0 0.00 0.00 0.00 85 1021.7
20210227222510 74 103 5.0 10.0 0.00 0.00 0.00 85 1021.7
20210227221448 75 98 6.0 12.0 0.00 0.00 0.00 85 1021.7
20210227220515 75 110 7.0 12.0 0.00 0.00 0.00 84 1021.5
20210227215434 75 123 6.0 11.0 0.00 0.00 0.00 84 1021.5
20210227214413 75 88 6.0 14.0 0.00 0.00 0.00 84 1021.5
20210227213357 76 153 7.0 14.0 0.00 0.00 0.00 83 1021.4
20210227212355 76 110 6.0 13.0 0.00 0.00 0.00 82 1021.4
20210227211357 76 128 8.0 15.0 0.00 0.00 0.00 82 1021.4
20210227210351 76 117 8.0 15.0 0.00 0.00 0.00 82 1021.4
20210227205623 76 147 8.0 14.0 0.00 0.00 0.00 83 1021.5
20210227204312 76 139 8.0 14.0 0.00 0.00 0.00 83 1021.5
20210227203307 76 126 7.0 14.0 0.00 0.00 0.00 82 1021.7
20210227202312 76 127 8.0 14.0 0.00 0.00 0.00 82 1021.6
20210227201300 76 117 8.0 14.0 0.00 0.00 0.00 82 1021.6
20210227200223 76 87 8.0 14.0 0.00 0.00 0.00 82 1021.7
20210227195215 76 103 7.0 12.0 0.00 0.00 0.00 82 1021.7
20210227194141 76 136 7.0 13.0 0.00 0.00 0.00 82 1021.9
20210227193258 76 120 6.0 13.0 0.00 0.00 0.00 82 1021.9
20210227192217 76 142 7.0 12.0 0.00 0.00 0.00 82 1021.8
20210227191200 76 132 7.0 13.0 0.00 0.00 0.00 81 1021.9
20210227190202 77 115 6.0 13.0 0.00 0.00 0.00 80 1022.0
20210227185141 77 138 7.0 13.0 0.00 0.00 0.00 81 1022.2
20210227184148 77 126 7.0 12.0 0.00 0.00 0.00 80 1022.3
20210227183211 77 134 8.0 13.0 0.00 0.00 0.00 80 1022.3
20210227182141 77 113 6.0 14.0 0.00 0.00 0.00 80 1022.4
20210227181109 77 113 9.0 15.0 0.00 0.00 0.00 80 1022.4
20210227180042 77 134 8.0 15.0 0.00 0.00 0.00 80 1022.6
20210227175159 77 148 7.0 14.0 0.00 0.00 0.00 80 1022.8
20210227174025 77 134 6.0 14.0 0.00 0.00 0.00 80 1022.9
20210227172946 77 138 6.0 11.0 0.00 0.00 0.00 80 1023.2
20210227171944 77 146 7.0 13.0 0.00 0.00 0.00 80 1023.3
20210227170911 77 125 5.0 13.0 0.00 0.00 0.00 79 1023.5
20210227165855 77 126 6.0 11.0 0.00 0.00 0.00 80 1023.5
20210227164904 77 130 5.0 11.0 0.00 0.00 0.00 80 1023.7
20210227163828 77 138 5.0 10.0 0.00 0.00 0.00 80 1023.8
20210227162913 77 150 5.0 10.0 0.00 0.00 0.00 79 1023.9
20210227161818 77 130 5.0 9.0 0.00 0.00 0.00 80 1023.9
20210227160742 76 96 5.0 10.0 0.00 0.00 0.00 81 1023.9
20210227155723 76 127 5.0 11.0 0.00 0.00 0.00 80 1023.9
20210227154733 76 132 5.0 11.0 0.00 0.00 0.00 80 1023.8
20210227153747 76 125 4.0 9.0 0.00 0.00 0.00 80 1023.8
20210227152814 76 124 4.0 8.0 0.00 0.00 0.00 81 1023.7
20210227151719 76 117 4.0 8.0 0.00 0.00 0.00 82 1023.7
20210227150641 75 107 4.0 7.0 0.00 0.00 0.00 82 1023.7
20210227145627 75 139 3.0 7.0 0.00 0.00 0.00 82 1023.7
20210227144644 76 104 2.0 6.0 0.00 0.00 0.00 81 1023.6
20210227143641 75 128 2.0 7.0 0.00 0.00 0.00 82 1023.6
20210227142817 75 144 3.0 7.0 0.00 0.00 0.00 82 1023.4
20210227141543 75 135 2.0 7.0 0.00 0.00 0.00 81 1023.3
20210227140530 75 134 2.0 7.0 0.00 0.00 0.00 82 1023.3
20210227135531 75 142 3.0 7.0 0.00 0.00 0.00 82 1023.2
20210227134528 75 142 3.0 7.0 0.00 0.00 0.00 84 1023.0
20210227133441 74 155 2.0 5.0 0.00 0.00 0.00 85 1022.9
20210227132427 73 153 1.0 3.0 0.00 0.00 0.00 86 1022.8
20210227131352 73 137 0.0 3.0 0.00 0.00 0.00 88 1022.8
20210227130351 72 136 0.0 3.0 0.00 0.00 0.00 89 1022.6
20210227125403 72 136 0.0 3.0 0.00 0.00 0.00 90 1022.6
20210227124258 71 138 1.0 3.0 0.00 0.00 0.00 91 1022.4
20210227123248 70 144 1.0 3.0 0.00 0.00 0.00 92 1022.2
20210227122241 70 141 0.0 2.0 0.00 0.00 0.00 92 1022.2
20210227121300 70 137 0.0 0.0 0.00 0.00 0.00 92 1022.1
20210227120256 69 137 0.0 0.0 0.00 0.00 0.00 92 1021.9
20210227115412 69 137 0.0 0.0 0.00 0.00 0.00 92 1021.8
20210227114307 69 137 0.0 0.0 0.00 0.00 0.00 92 1021.6
20210227113322 69 137 0.0 0.0 0.00 0.00 0.00 92 1021.5
20210227112300 69 137 0.0 0.0 0.00 0.00 0.00 92 1021.5
20210227111319 69 137 0.0 0.0 0.00 0.00 0.00 92 1021.5
20210227110322 69 137 0.0 0.0 0.00 0.00 0.00 92 1021.3
20210227105401 69 137 0.0 0.0 0.00 0.00 0.00 91 1021.4
20210227104337 69 137 0.0 0.0 0.00 0.00 0.00 91 1021.3
20210227103322 70 137 0.0 0.0 0.00 0.00 0.00 91 1021.3
20210227102352 70 137 0.0 0.0 0.00 0.00 0.00 91 1021.2
20210227101333 70 137 1.0 3.0 0.00 0.00 0.00 91 1021.1
20210227100325 70 137 1.0 3.0 0.00 0.00 0.00 91 1021.1
20210227095337 70 148 1.0 4.0 0.00 0.00 0.00 91 1021.1
20210227094349 70 138 1.0 4.0 0.00 0.00 0.00 91 1021.0
20210227093401 70 135 1.0 3.0 0.00 0.00 0.00 91 1020.9
20210227092440 70 139 1.0 3.0 0.00 0.00 0.00 91 1020.9
20210227091352 70 130 1.0 3.0 0.00 0.00 0.00 90 1021.0
20210227090340 70 132 1.0 3.0 0.00 0.00 0.00 90 1021.0
20210227085315 71 138 1.0 3.0 0.00 0.00 0.00 90 1020.9
20210227084252 71 144 1.0 3.0 0.00 0.00 0.00 90 1020.8
20210227083237 71 150 2.0 4.0 0.00 0.00 0.00 90 1020.7
20210227082235 71 130 2.0 4.0 0.00 0.00 0.00 90 1020.8
20210227081220 71 131 2.0 4.0 0.00 0.00 0.00 90 1020.7
20210227080210 71 153 2.0 3.0 0.00 0.00 0.00 90 1020.8
20210227075238 71 139 2.0 4.0 0.00 0.00 0.00 90 1020.7
20210227074120 71 134 1.0 3.0 0.00 0.00 0.00 90 1020.7
20210227073046 71 133 1.0 2.0 0.00 0.00 0.00 90 1020.8
20210227072041 71 133 1.0 3.0 0.00 0.00 0.00 89 1020.7
20210227071047 71 132 1.0 3.0 0.00 0.00 0.00 89 1020.8
20210227070029 71 129 1.0 3.0 0.00 0.00 0.00 89 1020.9
20210227065124 71 129 2.0 4.0 0.00 0.00 0.00 89 1021.0
20210227064031 72 128 2.0 4.0 0.00 0.00 0.00 89 1021.1
20210227063021 72 138 3.0 6.0 0.00 0.00 0.00 89 1021.0
20210227061951 72 148 3.0 7.0 0.00 0.00 0.00 89 1021.0
20210227060919 72 141 3.0 7.0 0.00 0.00 0.00 88 1021.0
20210227055919 72 97 3.0 7.0 0.00 0.00 0.00 88 1020.9
20210227054913 72 119 3.0 7.0 0.00 0.00 0.00 88 1020.9
20210227053918 72 134 3.0 7.0 0.00 0.00 0.00 89 1020.9
20210227052937 72 151 3.0 8.0 0.00 0.00 0.00 89 1020.9
20210227051844 72 146 3.0 9.0 0.00 0.00 0.00 89 1020.8
20210227050851 72 130 4.0 9.0 0.00 0.00 0.00 88 1020.9
20210227045857 72 110 4.0 8.0 0.00 0.00 0.00 89 1020.9
20210227044841 71 126 3.0 8.0 0.00 0.00 0.00 88 1020.9
20210227043751 71 119 3.0 8.0 0.00 0.00 0.00 88 1021.0
20210227042806 71 122 4.0 8.0 0.00 0.00 0.00 88 1021.0
20210227041705 71 130 4.0 8.0 0.00 0.00 0.00 88 1021.0
20210227040710 71 159 3.0 8.0 0.00 0.00 0.00 88 1021.1
20210227035707 71 127 3.0 6.0 0.00 0.00 0.00 88 1021.1
20210227034716 71 123 3.0 7.0 0.00 0.00 0.00 87 1021.2
20210227033722 71 111 3.0 7.0 0.00 0.00 0.00 87 1021.1
20210227032702 71 115 2.0 6.0 0.00 0.00 0.00 86 1021.2
20210227031642 71 114 2.0 5.0 0.00 0.00 0.00 85 1021.3
20210227030613 71 108 2.0 5.0 0.00 0.00 0.00 85 1021.3
20210227025601 71 118 2.0 5.0 0.00 0.00 0.00 84 1021.3
20210227024546 71 119 1.0 5.0 0.00 0.00 0.00 83 1021.3
20210227023548 71 111 2.0 6.0 0.00 0.00 0.00 83 1021.2
20210227022618 71 113 2.0 6.0 0.00 0.00 0.00 82 1021.3
20210227021603 71 115 2.0 5.0 0.00 0.00 0.00 83 1021.2
20210227020548 70 109 1.0 3.0 0.00 0.00 0.00 84 1021.2
20210227015527 70 107 0.0 2.0 0.00 0.00 0.00 84 1021.2
20210227014519 70 91 0.0 0.0 0.00 0.00 0.00 83 1021.1
20210227013458 70 91 0.0 2.0 0.00 0.00 0.00 83 1021.1
20210227012528 70 80 0.0 0.0 0.00 0.00 0.00 83 1021.1
20210227011354 70 81 0.0 2.0 0.00 0.00 0.00 83 1021.1
20210227010350 70 80 0.0 2.0 0.00 0.00 0.00 83 1021.0
20210227005407 70 78 0.0 1.0 0.00 0.00 0.00 82 1021.0
20210227004340 70 78 0.0 2.0 0.00 0.00 0.00 81 1020.9
20210227003313 71 78 1.0 2.0 0.00 0.00 0.00 80 1020.9
20210227002345 71 79 0.0 5.0 0.00 0.00 0.00 77 1021.0
20210227001320 70 88 1.0 5.0 0.00 0.00 0.00 78 1020.8
20210227000258 70 91 1.0 3.0 0.00 0.00 0.00 81 1020.8